Year,Month,Day,Hour,Minute,Value (Times are PST for temperature in C)
2015,09,22,00,00,5.10
2015,09,22,00,01,5.10
2015,09,22,00,02,5.10
2015,09,22,00,03,5.10
2015,09,22,00,04,5.10
2015,09,22,00,05,5.10
2015,09,22,00,06,5.10
2015,09,22,00,07,5.10
2015,09,22,00,08,5.10
2015,09,22,00,09,5.10
2015,09,22,00,10,5.10
2015,09,22,00,11,5.10
2015,09,22,00,12,5.00
2015,09,22,00,13,5.00
2015,09,22,00,14,5.00
2015,09,22,00,15,5.00
2015,09,22,00,16,4.90
2015,09,22,00,17,4.90
2015,09,22,00,18,4.90
2015,09,22,00,19,4.90
2015,09,22,00,20,4.80
2015,09,22,00,21,4.80
2015,09,22,00,22,4.70
2015,09,22,00,23,4.70
2015,09,22,00,24,4.70
2015,09,22,00,25,4.60
2015,09,22,00,26,4.60
2015,09,22,00,27,4.60
2015,09,22,00,28,4.50
2015,09,22,00,29,4.50
2015,09,22,00,30,4.50
2015,09,22,00,31,4.50
2015,09,22,00,32,4.50
2015,09,22,00,33,4.50
2015,09,22,00,34,4.50
2015,09,22,00,35,4.50
2015,09,22,00,36,4.50
2015,09,22,00,37,4.50
2015,09,22,00,38,4.60
2015,09,22,00,39,4.60
2015,09,22,00,40,4.60
2015,09,22,00,41,4.60
2015,09,22,00,42,4.60
2015,09,22,00,43,4.60
2015,09,22,00,44,4.60
2015,09,22,00,45,4.60
2015,09,22,00,46,4.60
2015,09,22,00,47,4.60
2015,09,22,00,48,4.50
2015,09,22,00,49,4.50
2015,09,22,00,50,4.50
2015,09,22,00,51,4.50
2015,09,22,00,52,4.50
2015,09,22,00,53,4.50
2015,09,22,00,54,4.50
2015,09,22,00,55,4.50
2015,09,22,00,56,4.50
2015,09,22,00,57,4.50
2015,09,22,00,58,4.40
2015,09,22,00,59,4.40
2015,09,22,01,00,4.40
2015,09,22,01,01,4.40
2015,09,22,01,02,4.40
2015,09,22,01,03,4.30
2015,09,22,01,04,4.30
2015,09,22,01,05,4.30
2015,09,22,01,06,4.30
2015,09,22,01,07,4.30
2015,09,22,01,08,4.30
2015,09,22,01,09,4.30
2015,09,22,01,10,4.30
2015,09,22,01,11,4.30
2015,09,22,01,12,4.30
2015,09,22,01,13,4.30
2015,09,22,01,14,4.30
2015,09,22,01,15,4.30
2015,09,22,01,16,4.30
2015,09,22,01,17,4.30
2015,09,22,01,18,4.30
2015,09,22,01,19,4.30
2015,09,22,01,20,4.30
2015,09,22,01,21,4.30
2015,09,22,01,22,4.30
2015,09,22,01,23,4.20
2015,09,22,01,24,4.20
2015,09,22,01,25,4.20
2015,09,22,01,26,4.20
2015,09,22,01,27,4.10
2015,09,22,01,28,4.10
2015,09,22,01,29,4.10
2015,09,22,01,30,4.10
2015,09,22,01,31,4.10
2015,09,22,01,32,4.10
2015,09,22,01,33,4.10
2015,09,22,01,34,4.10
2015,09,22,01,35,4.10
2015,09,22,01,36,4.10
2015,09,22,01,37,4.00
2015,09,22,01,38,4.00
2015,09,22,01,39,3.90
2015,09,22,01,40,3.80
2015,09,22,01,41,3.80
2015,09,22,01,42,3.70
2015,09,22,01,43,3.70
2015,09,22,01,44,3.70
2015,09,22,01,45,3.70
2015,09,22,01,46,3.70
2015,09,22,01,47,3.70
2015,09,22,01,48,3.70
2015,09,22,01,49,3.70
2015,09,22,01,50,3.70
2015,09,22,01,51,3.70
2015,09,22,01,52,3.80
2015,09,22,01,53,3.80
2015,09,22,01,54,3.80
2015,09,22,01,55,3.80
2015,09,22,01,56,3.90
2015,09,22,01,57,3.90
2015,09,22,01,58,3.90
2015,09,22,01,59,3.90
2015,09,22,02,00,3.90
2015,09,22,02,01,3.90
2015,09,22,02,02,3.90
2015,09,22,02,03,3.90
2015,09,22,02,04,3.90
2015,09,22,02,05,3.90
2015,09,22,02,06,3.90
2015,09,22,02,07,3.90
2015,09,22,02,08,3.90
2015,09,22,02,09,3.90
2015,09,22,02,10,3.90
2015,09,22,02,11,3.90
2015,09,22,02,12,3.80
2015,09,22,02,13,3.80
2015,09,22,02,14,3.80
2015,09,22,02,15,3.80
2015,09,22,02,16,3.80
2015,09,22,02,17,3.70
2015,09,22,02,18,3.70
2015,09,22,02,19,3.70
2015,09,22,02,20,3.70
2015,09,22,02,21,3.80
2015,09,22,02,22,3.80
2015,09,22,02,23,3.80
2015,09,22,02,24,3.80
2015,09,22,02,25,3.80
2015,09,22,02,26,3.80
2015,09,22,02,27,3.80
2015,09,22,02,28,3.80
2015,09,22,02,29,3.90
2015,09,22,02,30,3.90
2015,09,22,02,31,3.90
2015,09,22,02,32,3.90
2015,09,22,02,33,3.90
2015,09,22,02,34,3.80
2015,09,22,02,35,3.80
2015,09,22,02,36,3.80
2015,09,22,02,37,3.80
2015,09,22,02,38,3.80
2015,09,22,02,39,3.70
2015,09,22,02,40,3.70
2015,09,22,02,41,3.70
2015,09,22,02,42,3.70
2015,09,22,02,43,3.60
2015,09,22,02,44,3.60
2015,09,22,02,45,3.60
2015,09,22,02,46,3.50
2015,09,22,02,47,3.50
2015,09,22,02,48,3.40
2015,09,22,02,49,3.40
2015,09,22,02,50,3.40
2015,09,22,02,51,3.40
2015,09,22,02,52,3.40
2015,09,22,02,53,3.40
2015,09,22,02,54,3.40
2015,09,22,02,55,3.40
2015,09,22,02,56,3.40
2015,09,22,02,57,3.40
2015,09,22,02,58,3.40
2015,09,22,02,59,3.40
2015,09,22,03,00,3.40
2015,09,22,03,01,3.40
2015,09,22,03,02,3.40
2015,09,22,03,03,3.40
2015,09,22,03,04,3.40
2015,09,22,03,05,3.40
2015,09,22,03,06,3.40
2015,09,22,03,07,3.40
2015,09,22,03,08,3.40
2015,09,22,03,09,3.30
2015,09,22,03,10,3.30
2015,09,22,03,11,3.30
2015,09,22,03,12,3.30
2015,09,22,03,13,3.30
2015,09,22,03,14,3.30
2015,09,22,03,15,3.20
2015,09,22,03,16,3.20
2015,09,22,03,17,3.20
2015,09,22,03,18,3.20
2015,09,22,03,19,3.20
2015,09,22,03,20,3.20
2015,09,22,03,21,3.30
2015,09,22,03,22,3.20
2015,09,22,03,23,3.20
2015,09,22,03,24,3.20
2015,09,22,03,25,3.30
2015,09,22,03,26,3.30
2015,09,22,03,27,3.30
2015,09,22,03,28,3.20
2015,09,22,03,29,3.30
2015,09,22,03,30,3.30
2015,09,22,03,31,3.30
2015,09,22,03,32,3.30
2015,09,22,03,33,3.30
2015,09,22,03,34,3.30
2015,09,22,03,35,3.20
2015,09,22,03,36,3.20
2015,09,22,03,37,3.20
2015,09,22,03,38,3.20
2015,09,22,03,39,3.20
2015,09,22,03,40,3.20
2015,09,22,03,41,3.20
2015,09,22,03,42,3.20
2015,09,22,03,43,3.20
2015,09,22,03,44,3.20
2015,09,22,03,45,3.20
2015,09,22,03,46,3.20
2015,09,22,03,47,3.20
2015,09,22,03,48,3.20
2015,09,22,03,49,3.20
2015,09,22,03,50,3.20
2015,09,22,03,51,3.20
2015,09,22,03,52,3.20
2015,09,22,03,53,3.20
2015,09,22,03,54,3.20
2015,09,22,03,55,3.20
2015,09,22,03,56,3.20
2015,09,22,03,57,3.20
2015,09,22,03,58,3.20
2015,09,22,03,59,3.20
2015,09,22,04,00,3.20
2015,09,22,04,01,3.20
2015,09,22,04,02,3.20
2015,09,22,04,03,3.20
2015,09,22,04,04,3.20
2015,09,22,04,05,3.20
2015,09,22,04,06,3.20
2015,09,22,04,07,3.20
2015,09,22,04,08,3.20
2015,09,22,04,09,3.10
2015,09,22,04,10,3.10
2015,09,22,04,11,3.10
2015,09,22,04,12,3.10
2015,09,22,04,13,3.10
2015,09,22,04,14,3.10
2015,09,22,04,15,3.10
2015,09,22,04,16,3.10
2015,09,22,04,17,3.10
2015,09,22,04,18,3.10
2015,09,22,04,19,3.00
2015,09,22,04,20,3.00
2015,09,22,04,21,3.00
2015,09,22,04,22,3.00
2015,09,22,04,23,3.00
2015,09,22,04,24,3.00
2015,09,22,04,25,3.00
2015,09,22,04,26,3.00
2015,09,22,04,27,3.00
2015,09,22,04,28,2.90
2015,09,22,04,29,2.90
2015,09,22,04,30,2.80
2015,09,22,04,31,2.80
2015,09,22,04,32,2.80
2015,09,22,04,33,2.70
2015,09,22,04,34,2.70
2015,09,22,04,35,2.70
2015,09,22,04,36,2.70
2015,09,22,04,37,2.70
2015,09,22,04,38,2.70
2015,09,22,04,39,2.80
2015,09,22,04,40,2.80
2015,09,22,04,41,2.80
2015,09,22,04,42,2.80
2015,09,22,04,43,2.80
2015,09,22,04,44,2.80
2015,09,22,04,45,2.80
2015,09,22,04,46,2.80
2015,09,22,04,47,2.80
2015,09,22,04,48,2.80
2015,09,22,04,49,2.70
2015,09,22,04,50,2.70
2015,09,22,04,51,2.70
2015,09,22,04,52,2.70
2015,09,22,04,53,2.70
2015,09,22,04,54,2.70
2015,09,22,04,55,2.70
2015,09,22,04,56,2.70
2015,09,22,04,57,2.70
2015,09,22,04,58,2.70
2015,09,22,04,59,2.70
2015,09,22,05,00,2.70
2015,09,22,05,01,2.80
2015,09,22,05,02,2.80
2015,09,22,05,03,2.80
2015,09,22,05,04,2.80
2015,09,22,05,05,2.80
2015,09,22,05,06,2.90
2015,09,22,05,07,2.90
2015,09,22,05,08,2.80
2015,09,22,05,09,2.80
2015,09,22,05,10,2.80
2015,09,22,05,11,2.80
2015,09,22,05,12,2.80
2015,09,22,05,13,2.80
2015,09,22,05,14,2.80
2015,09,22,05,15,2.80
2015,09,22,05,16,2.80
2015,09,22,05,17,2.70
2015,09,22,05,18,2.70
2015,09,22,05,19,2.70
2015,09,22,05,20,2.70
2015,09,22,05,21,2.70
2015,09,22,05,22,2.70
2015,09,22,05,23,2.70
2015,09,22,05,24,2.70
2015,09,22,05,25,2.70
2015,09,22,05,26,2.70
2015,09,22,05,27,2.60
2015,09,22,05,28,2.60
2015,09,22,05,29,2.50
2015,09,22,05,30,2.50
2015,09,22,05,31,2.50
2015,09,22,05,32,2.50
2015,09,22,05,33,2.50
2015,09,22,05,34,2.50
2015,09,22,05,35,2.40
2015,09,22,05,36,2.50
2015,09,22,05,37,2.50
2015,09,22,05,38,2.50
2015,09,22,05,39,2.50
2015,09,22,05,40,2.60
2015,09,22,05,41,2.60
2015,09,22,05,42,2.60
2015,09,22,05,43,2.60
2015,09,22,05,44,2.60
2015,09,22,05,45,2.60
2015,09,22,05,46,2.60
2015,09,22,05,47,2.60
2015,09,22,05,48,2.60
2015,09,22,05,49,2.60
2015,09,22,05,50,2.70
2015,09,22,05,51,2.70
2015,09,22,05,52,2.70
2015,09,22,05,53,2.70
2015,09,22,05,54,2.70
2015,09,22,05,55,2.70
2015,09,22,05,56,2.70
2015,09,22,05,57,2.70
2015,09,22,05,58,2.70
2015,09,22,05,59,2.70
2015,09,22,06,00,2.70
2015,09,22,06,01,2.70
2015,09,22,06,02,2.70
2015,09,22,06,03,2.70
2015,09,22,06,04,2.70
2015,09,22,06,05,2.70
2015,09,22,06,06,2.80
2015,09,22,06,07,2.80
2015,09,22,06,08,2.80
2015,09,22,06,09,2.80
2015,09,22,06,10,2.80
2015,09,22,06,11,2.80
2015,09,22,06,12,2.80
2015,09,22,06,13,2.80
2015,09,22,06,14,2.80
2015,09,22,06,15,2.80
2015,09,22,06,16,2.80
2015,09,22,06,17,2.80
2015,09,22,06,18,2.80
2015,09,22,06,19,2.80
2015,09,22,06,20,2.80
2015,09,22,06,21,2.80
2015,09,22,06,22,2.80
2015,09,22,06,23,2.80
2015,09,22,06,24,2.80
2015,09,22,06,25,2.80
2015,09,22,06,26,2.80
2015,09,22,06,27,2.80
2015,09,22,06,28,2.90
2015,09,22,06,29,2.90
2015,09,22,06,30,2.90
2015,09,22,06,31,2.90
2015,09,22,06,32,2.90
2015,09,22,06,33,2.90
2015,09,22,06,34,2.90
2015,09,22,06,35,2.90
2015,09,22,06,36,2.90
2015,09,22,06,37,3.00
2015,09,22,06,38,3.00
2015,09,22,06,39,3.00
2015,09,22,06,40,3.00
2015,09,22,06,41,3.00
2015,09,22,06,42,3.00
2015,09,22,06,43,3.00
2015,09,22,06,44,3.10
2015,09,22,06,45,3.10
2015,09,22,06,46,3.10
2015,09,22,06,47,3.10
2015,09,22,06,48,3.10
2015,09,22,06,49,3.00
2015,09,22,06,50,3.00
2015,09,22,06,51,3.00
2015,09,22,06,52,3.00
2015,09,22,06,53,2.90
2015,09,22,06,54,2.90
2015,09,22,06,55,2.90
2015,09,22,06,56,2.90
2015,09,22,06,57,2.90
2015,09,22,06,58,2.90
2015,09,22,06,59,2.90
2015,09,22,07,00,2.90
2015,09,22,07,01,2.90
2015,09,22,07,02,2.90
2015,09,22,07,03,2.90
2015,09,22,07,04,2.90
2015,09,22,07,05,2.90
2015,09,22,07,06,2.90
2015,09,22,07,07,3.00
2015,09,22,07,08,3.00
2015,09,22,07,09,3.00
2015,09,22,07,10,3.00
2015,09,22,07,11,3.10
2015,09,22,07,12,3.10
2015,09,22,07,13,3.10
2015,09,22,07,14,3.10
2015,09,22,07,15,3.10
2015,09,22,07,16,3.10
2015,09,22,07,17,3.10
2015,09,22,07,18,3.10
2015,09,22,07,19,3.10
2015,09,22,07,20,3.20
2015,09,22,07,21,3.20
2015,09,22,07,22,3.20
2015,09,22,07,23,3.20
2015,09,22,07,24,3.20
2015,09,22,07,25,3.20
2015,09,22,07,26,3.20
2015,09,22,07,27,3.30
2015,09,22,07,28,3.30
2015,09,22,07,29,3.30
2015,09,22,07,30,3.30
2015,09,22,07,31,3.30
2015,09,22,07,32,3.30
2015,09,22,07,33,3.30
2015,09,22,07,34,3.30
2015,09,22,07,35,3.30
2015,09,22,07,36,3.40
2015,09,22,07,37,3.40
2015,09,22,07,38,3.40
2015,09,22,07,39,3.40
2015,09,22,07,40,3.40
2015,09,22,07,41,3.40
2015,09,22,07,42,3.40
2015,09,22,07,43,3.40
2015,09,22,07,44,3.40
2015,09,22,07,45,3.40
2015,09,22,07,46,3.40
2015,09,22,07,47,3.40
2015,09,22,07,48,3.40
2015,09,22,07,49,3.40
2015,09,22,07,50,3.40
2015,09,22,07,51,3.40
2015,09,22,07,52,3.50
2015,09,22,07,53,3.50
2015,09,22,07,54,3.50
2015,09,22,07,55,3.50
2015,09,22,07,56,3.50
2015,09,22,07,57,3.50
2015,09,22,07,58,3.60
2015,09,22,07,59,3.60
2015,09,22,08,00,3.60
2015,09,22,08,01,3.60
2015,09,22,08,02,3.60
2015,09,22,08,03,3.70
2015,09,22,08,04,3.70
2015,09,22,08,05,3.70
2015,09,22,08,06,3.70
2015,09,22,08,07,3.80
2015,09,22,08,08,3.80
2015,09,22,08,09,3.90
2015,09,22,08,10,3.90
2015,09,22,08,11,3.90
2015,09,22,08,12,4.00
2015,09,22,08,13,4.00
2015,09,22,08,14,4.10
2015,09,22,08,15,4.10
2015,09,22,08,16,4.20
2015,09,22,08,17,4.30
2015,09,22,08,18,4.30
2015,09,22,08,19,4.40
2015,09,22,08,20,4.50
2015,09,22,08,21,4.50
2015,09,22,08,22,4.60
2015,09,22,08,23,4.70
2015,09,22,08,24,4.70
2015,09,22,08,25,4.70
2015,09,22,08,26,4.80
2015,09,22,08,27,4.90
2015,09,22,08,28,4.90
2015,09,22,08,29,5.00
2015,09,22,08,30,5.10
2015,09,22,08,31,5.20
2015,09,22,08,32,5.30
2015,09,22,08,33,5.40
2015,09,22,08,34,5.40
2015,09,22,08,35,5.50
2015,09,22,08,36,5.60
2015,09,22,08,37,5.70
2015,09,22,08,38,5.80
2015,09,22,08,39,5.90
2015,09,22,08,40,5.90
2015,09,22,08,41,6.00
2015,09,22,08,42,6.10
2015,09,22,08,43,6.20
2015,09,22,08,44,6.20
2015,09,22,08,45,6.30
2015,09,22,08,46,6.40
2015,09,22,08,47,6.50
2015,09,22,08,48,6.60
2015,09,22,08,49,6.70
2015,09,22,08,50,6.80
2015,09,22,08,51,6.90
2015,09,22,08,52,7.00
2015,09,22,08,53,7.10
2015,09,22,08,54,7.10
2015,09,22,08,55,7.20
2015,09,22,08,56,7.20
2015,09,22,08,57,7.20
2015,09,22,08,58,7.20
2015,09,22,08,59,7.30
2015,09,22,09,00,7.30
2015,09,22,09,01,7.30
2015,09,22,09,02,7.30
2015,09,22,09,03,7.40
2015,09,22,09,04,7.40
2015,09,22,09,05,7.40
2015,09,22,09,06,7.50
2015,09,22,09,07,7.50
2015,09,22,09,08,7.50
2015,09,22,09,09,7.60
2015,09,22,09,10,7.70
2015,09,22,09,11,7.70
2015,09,22,09,12,7.70
2015,09,22,09,13,7.80
2015,09,22,09,14,7.80
2015,09,22,09,15,7.80
2015,09,22,09,16,7.90
2015,09,22,09,17,7.90
2015,09,22,09,18,7.90
2015,09,22,09,19,8.00
2015,09,22,09,20,8.00
2015,09,22,09,21,8.00
2015,09,22,09,22,8.10
2015,09,22,09,23,8.10
2015,09,22,09,24,8.20
2015,09,22,09,25,8.20
2015,09,22,09,26,8.20
2015,09,22,09,27,8.30
2015,09,22,09,28,8.30
2015,09,22,09,29,8.40
2015,09,22,09,30,8.50
2015,09,22,09,31,8.60
2015,09,22,09,32,8.70
2015,09,22,09,33,8.80
2015,09,22,09,34,8.90
2015,09,22,09,35,9.00
2015,09,22,09,36,9.10
2015,09,22,09,37,9.30
2015,09,22,09,38,9.40
2015,09,22,09,39,9.50
2015,09,22,09,40,9.60
2015,09,22,09,41,9.70
2015,09,22,09,42,9.80
2015,09,22,09,43,9.90
2015,09,22,09,44,10.00
2015,09,22,09,45,10.10
2015,09,22,09,46,10.20
2015,09,22,09,47,10.30
2015,09,22,09,48,10.40
2015,09,22,09,49,10.50
2015,09,22,09,50,10.60
2015,09,22,09,51,10.70
2015,09,22,09,52,10.80
2015,09,22,09,53,10.90
2015,09,22,09,54,10.90
2015,09,22,09,55,11.00
2015,09,22,09,56,11.10
2015,09,22,09,57,11.10
2015,09,22,09,58,11.10
2015,09,22,09,59,11.10
2015,09,22,10,00,11.10
2015,09,22,10,01,11.20
2015,09,22,10,02,11.20
2015,09,22,10,03,11.30
2015,09,22,10,04,11.40
2015,09,22,10,05,11.50
2015,09,22,10,06,11.70
2015,09,22,10,07,11.80
2015,09,22,10,08,11.80
2015,09,22,10,09,11.90
2015,09,22,10,10,11.90
2015,09,22,10,11,12.00
2015,09,22,10,12,12.10
2015,09,22,10,13,12.10
2015,09,22,10,14,12.20
2015,09,22,10,15,12.20
2015,09,22,10,16,12.20
2015,09,22,10,17,12.20
2015,09,22,10,18,12.10
2015,09,22,10,19,12.10
2015,09,22,10,20,12.20
2015,09,22,10,21,12.20
2015,09,22,10,22,12.20
2015,09,22,10,23,12.30
2015,09,22,10,24,12.30
2015,09,22,10,25,12.30
2015,09,22,10,26,12.30
2015,09,22,10,27,12.40
2015,09,22,10,28,12.40
2015,09,22,10,29,12.40
2015,09,22,10,30,12.40
2015,09,22,10,31,12.40
2015,09,22,10,32,12.40
2015,09,22,10,33,12.40
2015,09,22,10,34,12.40
2015,09,22,10,35,12.40
2015,09,22,10,36,12.40
2015,09,22,10,37,12.40
2015,09,22,10,38,12.30
2015,09,22,10,39,12.40
2015,09,22,10,40,12.40
2015,09,22,10,41,12.40
2015,09,22,10,42,12.40
2015,09,22,10,43,12.40
2015,09,22,10,44,12.40
2015,09,22,10,45,12.40
2015,09,22,10,46,12.50
2015,09,22,10,47,12.50
2015,09,22,10,48,12.50
2015,09,22,10,49,12.50
2015,09,22,10,50,12.50
2015,09,22,10,51,12.50
2015,09,22,10,52,12.50
2015,09,22,10,53,12.50
2015,09,22,10,54,12.50
2015,09,22,10,55,12.50
2015,09,22,10,56,12.50
2015,09,22,10,57,12.50
2015,09,22,10,58,12.50
2015,09,22,10,59,12.50
2015,09,22,11,00,12.60
2015,09,22,11,01,12.60
2015,09,22,11,02,12.60
2015,09,22,11,03,12.60
2015,09,22,11,04,12.70
2015,09,22,11,05,12.70
2015,09,22,11,06,12.60
2015,09,22,11,07,12.60
2015,09,22,11,08,12.60
2015,09,22,11,09,12.60
2015,09,22,11,10,12.60
2015,09,22,11,11,12.60
2015,09,22,11,12,12.70
2015,09,22,11,13,12.70
2015,09,22,11,14,12.70
2015,09,22,11,15,12.70
2015,09,22,11,16,12.70
2015,09,22,11,17,12.70
2015,09,22,11,18,12.70
2015,09,22,11,19,12.70
2015,09,22,11,20,12.70
2015,09,22,11,21,12.80
2015,09,22,11,22,12.80
2015,09,22,11,23,12.80
2015,09,22,11,24,12.80
2015,09,22,11,25,12.80
2015,09,22,11,26,12.80
2015,09,22,11,27,12.90
2015,09,22,11,28,12.90
2015,09,22,11,29,13.00
2015,09,22,11,30,13.10
2015,09,22,11,31,13.20
2015,09,22,11,32,13.20
2015,09,22,11,33,13.20
2015,09,22,11,34,13.20
2015,09,22,11,35,13.30
2015,09,22,11,36,13.30
2015,09,22,11,37,13.20
2015,09,22,11,38,13.20
2015,09,22,11,39,13.20
2015,09,22,11,40,13.20
2015,09,22,11,41,13.20
2015,09,22,11,42,13.20
2015,09,22,11,43,13.20
2015,09,22,11,44,13.20
2015,09,22,11,45,13.20
2015,09,22,11,46,13.30
2015,09,22,11,47,13.30
2015,09,22,11,48,13.40
2015,09,22,11,49,13.40
2015,09,22,11,50,13.50
2015,09,22,11,51,13.50
2015,09,22,11,52,13.50
2015,09,22,11,53,13.60
2015,09,22,11,54,13.70
2015,09,22,11,55,13.80
2015,09,22,11,56,13.80
2015,09,22,11,57,13.90
2015,09,22,11,58,14.00
2015,09,22,11,59,14.00
2015,09,22,12,00,14.10
2015,09,22,12,01,14.20
2015,09,22,12,02,14.20
2015,09,22,12,03,14.20
2015,09,22,12,04,14.20
2015,09,22,12,05,14.20
2015,09,22,12,06,14.20
2015,09,22,12,07,14.20
2015,09,22,12,08,14.10
2015,09,22,12,09,14.10
2015,09,22,12,10,14.00
2015,09,22,12,11,13.90
2015,09,22,12,12,13.90
2015,09,22,12,13,13.90
2015,09,22,12,14,13.90
2015,09,22,12,15,13.90
2015,09,22,12,16,13.90
2015,09,22,12,17,13.80
2015,09,22,12,18,13.80
2015,09,22,12,19,13.80
2015,09,22,12,20,13.80
2015,09,22,12,21,13.80
2015,09,22,12,22,13.80
2015,09,22,12,23,13.80
2015,09,22,12,24,13.90
2015,09,22,12,25,13.90
2015,09,22,12,26,13.90
2015,09,22,12,27,13.90
2015,09,22,12,28,13.90
2015,09,22,12,29,13.90
2015,09,22,12,30,14.00
2015,09,22,12,31,14.00
2015,09,22,12,32,14.10
2015,09,22,12,33,14.10
2015,09,22,12,34,14.20
2015,09,22,12,35,14.30
2015,09,22,12,36,14.30
2015,09,22,12,37,14.40
2015,09,22,12,38,14.40
2015,09,22,12,39,14.50
2015,09,22,12,40,14.50
2015,09,22,12,41,14.60
2015,09,22,12,42,14.70
2015,09,22,12,43,14.70
2015,09,22,12,44,14.70
2015,09,22,12,45,14.60
2015,09,22,12,46,14.60
2015,09,22,12,47,14.60
2015,09,22,12,48,14.60
2015,09,22,12,49,14.60
2015,09,22,12,50,14.60
2015,09,22,12,51,14.60
2015,09,22,12,52,14.60
2015,09,22,12,53,14.60
2015,09,22,12,54,14.60
2015,09,22,12,55,14.60
2015,09,22,12,56,14.60
2015,09,22,12,57,14.60
2015,09,22,12,58,14.60
2015,09,22,12,59,14.60
2015,09,22,13,00,14.50
2015,09,22,13,01,14.50
2015,09,22,13,02,14.50
2015,09,22,13,03,14.40
2015,09,22,13,04,14.40
2015,09,22,13,05,14.40
2015,09,22,13,06,14.40
2015,09,22,13,07,14.50
2015,09,22,13,08,14.50
2015,09,22,13,09,14.50
2015,09,22,13,10,14.40
2015,09,22,13,11,14.40
2015,09,22,13,12,14.40
2015,09,22,13,13,14.40
2015,09,22,13,14,14.50
2015,09,22,13,15,14.50
2015,09,22,13,16,14.50
2015,09,22,13,17,14.50
2015,09,22,13,18,14.40
2015,09,22,13,19,14.40
2015,09,22,13,20,14.40
2015,09,22,13,21,14.50
2015,09,22,13,22,14.50
2015,09,22,13,23,14.50
2015,09,22,13,24,14.50
2015,09,22,13,25,14.50
2015,09,22,13,26,14.50
2015,09,22,13,27,14.50
2015,09,22,13,28,14.60
2015,09,22,13,29,14.60
2015,09,22,13,30,14.70
2015,09,22,13,31,14.70
2015,09,22,13,32,14.70
2015,09,22,13,33,14.80
2015,09,22,13,34,14.80
2015,09,22,13,35,14.80
2015,09,22,13,36,14.80
2015,09,22,13,37,14.80
2015,09,22,13,38,14.80
2015,09,22,13,39,14.80
2015,09,22,13,40,14.80
2015,09,22,13,41,14.70
2015,09,22,13,42,14.70
2015,09,22,13,43,14.70
2015,09,22,13,44,14.70
2015,09,22,13,45,14.70
2015,09,22,13,46,14.60
2015,09,22,13,47,14.60
2015,09,22,13,48,14.50
2015,09,22,13,49,14.50
2015,09,22,13,50,14.50
2015,09,22,13,51,14.50
2015,09,22,13,52,14.50
2015,09,22,13,53,14.50
2015,09,22,13,54,14.60
2015,09,22,13,55,14.50
2015,09,22,13,56,14.50
2015,09,22,13,57,14.50
2015,09,22,13,58,14.50
2015,09,22,13,59,14.50
2015,09,22,14,00,14.50
2015,09,22,14,01,14.50
2015,09,22,14,02,14.50
2015,09,22,14,03,14.50
2015,09,22,14,04,14.50
2015,09,22,14,05,14.50
2015,09,22,14,06,14.50
2015,09,22,14,07,14.60
2015,09,22,14,08,14.50
2015,09,22,14,09,14.50
2015,09,22,14,10,14.50
2015,09,22,14,11,14.50
2015,09,22,14,12,14.50
2015,09,22,14,13,14.50
2015,09,22,14,14,14.50
2015,09,22,14,15,14.50
2015,09,22,14,16,14.50
2015,09,22,14,17,14.50
2015,09,22,14,18,14.60
2015,09,22,14,19,14.60
2015,09,22,14,20,14.60
2015,09,22,14,21,14.60
2015,09,22,14,22,14.70
2015,09,22,14,23,14.70
2015,09,22,14,24,14.80
2015,09,22,14,25,14.80
2015,09,22,14,26,14.80
2015,09,22,14,27,14.80
2015,09,22,14,28,14.80
2015,09,22,14,29,14.80
2015,09,22,14,30,14.80
2015,09,22,14,31,14.80
2015,09,22,14,32,14.80
2015,09,22,14,33,14.80
2015,09,22,14,34,14.80
2015,09,22,14,35,14.80
2015,09,22,14,36,14.80
2015,09,22,14,37,14.80
2015,09,22,14,38,14.80
2015,09,22,14,39,14.80
2015,09,22,14,40,14.90
2015,09,22,14,41,14.80
2015,09,22,14,42,14.80
2015,09,22,14,43,14.80
2015,09,22,14,44,14.80
2015,09,22,14,45,14.80
2015,09,22,14,46,14.80
2015,09,22,14,47,14.80
2015,09,22,14,48,14.80
2015,09,22,14,49,14.70
2015,09,22,14,50,14.70
2015,09,22,14,51,14.70
2015,09,22,14,52,14.70
2015,09,22,14,53,14.70
2015,09,22,14,54,14.80
2015,09,22,14,55,14.80
2015,09,22,14,56,14.80
2015,09,22,14,57,14.80
2015,09,22,14,58,14.80
2015,09,22,14,59,14.80
2015,09,22,15,00,14.80
2015,09,22,15,01,14.80
2015,09,22,15,02,14.80
2015,09,22,15,03,14.90
2015,09,22,15,04,14.90
2015,09,22,15,05,14.90
2015,09,22,15,06,14.90
2015,09,22,15,07,14.90
2015,09,22,15,08,14.90
2015,09,22,15,09,14.90
2015,09,22,15,10,14.90
2015,09,22,15,11,15.00
2015,09,22,15,12,15.00
2015,09,22,15,13,15.00
2015,09,22,15,14,15.10
2015,09,22,15,15,15.10
2015,09,22,15,16,15.10
2015,09,22,15,17,15.10
2015,09,22,15,18,15.10
2015,09,22,15,19,15.10
2015,09,22,15,20,15.10
2015,09,22,15,21,15.20
2015,09,22,15,22,15.20
2015,09,22,15,23,15.20
2015,09,22,15,24,15.20
2015,09,22,15,25,15.20
2015,09,22,15,26,15.20
2015,09,22,15,27,15.20
2015,09,22,15,28,15.20
2015,09,22,15,29,15.20
2015,09,22,15,30,15.20
2015,09,22,15,31,15.20
2015,09,22,15,32,15.30
2015,09,22,15,33,15.30
2015,09,22,15,34,15.30
2015,09,22,15,35,15.30
2015,09,22,15,36,15.30
2015,09,22,15,37,15.30
2015,09,22,15,38,15.30
2015,09,22,15,39,15.30
2015,09,22,15,40,15.30
2015,09,22,15,41,15.30
2015,09,22,15,42,15.30
2015,09,22,15,43,15.30
2015,09,22,15,44,15.30
2015,09,22,15,45,15.30
2015,09,22,15,46,15.30
2015,09,22,15,47,15.30
2015,09,22,15,48,15.30
2015,09,22,15,49,15.30
2015,09,22,15,50,15.30
2015,09,22,15,51,15.30
2015,09,22,15,52,15.30
2015,09,22,15,53,15.30
2015,09,22,15,54,15.30
2015,09,22,15,55,15.30
2015,09,22,15,56,15.30
2015,09,22,15,57,15.30
2015,09,22,15,58,15.40
2015,09,22,15,59,15.40
2015,09,22,16,00,15.40
2015,09,22,16,01,15.40
2015,09,22,16,02,15.40
2015,09,22,16,03,15.40
2015,09,22,16,04,15.40
2015,09,22,16,05,15.50
2015,09,22,16,06,15.50
2015,09,22,16,07,15.50
2015,09,22,16,08,15.40
2015,09,22,16,09,15.40
2015,09,22,16,10,15.40
2015,09,22,16,11,15.40
2015,09,22,16,12,15.40
2015,09,22,16,13,15.40
2015,09,22,16,14,15.40
2015,09,22,16,15,15.30
2015,09,22,16,16,15.30
2015,09,22,16,17,15.30
2015,09,22,16,18,15.30
2015,09,22,16,19,15.30
2015,09,22,16,20,15.30
2015,09,22,16,21,15.30
2015,09,22,16,22,15.30
2015,09,22,16,23,15.30
2015,09,22,16,24,15.30
2015,09,22,16,25,15.30
2015,09,22,16,26,15.40
2015,09,22,16,27,15.40
2015,09,22,16,28,15.40
2015,09,22,16,29,15.40
2015,09,22,16,30,15.40
2015,09,22,16,31,15.40
2015,09,22,16,32,15.40
2015,09,22,16,33,15.40
2015,09,22,16,34,15.40
2015,09,22,16,35,15.50
2015,09,22,16,36,15.50
2015,09,22,16,37,15.60
2015,09,22,16,38,15.60
2015,09,22,16,39,15.60
2015,09,22,16,40,15.70
2015,09,22,16,41,15.70
2015,09,22,16,42,15.60
2015,09,22,16,43,15.60
2015,09,22,16,44,15.60
2015,09,22,16,45,15.60
2015,09,22,16,46,15.60
2015,09,22,16,47,15.60
2015,09,22,16,48,15.60
2015,09,22,16,49,15.60
2015,09,22,16,50,15.70
2015,09,22,16,51,15.70
2015,09,22,16,52,15.70
2015,09,22,16,53,15.70
2015,09,22,16,54,15.70
2015,09,22,16,55,15.70
2015,09,22,16,56,15.80
2015,09,22,16,57,15.80
2015,09,22,16,58,15.80
2015,09,22,16,59,15.80
2015,09,22,17,00,15.80
2015,09,22,17,01,15.80
2015,09,22,17,02,15.80
2015,09,22,17,03,15.70
2015,09,22,17,04,15.70
2015,09,22,17,05,15.70
2015,09,22,17,06,15.70
2015,09,22,17,07,15.70
2015,09,22,17,08,15.70
2015,09,22,17,09,15.70
2015,09,22,17,10,15.70
2015,09,22,17,11,15.60
2015,09,22,17,12,15.60
2015,09,22,17,13,15.60
2015,09,22,17,14,15.60
2015,09,22,17,15,15.60
2015,09,22,17,16,15.60
2015,09,22,17,17,15.60
2015,09,22,17,18,15.60
2015,09,22,17,19,15.60
2015,09,22,17,20,15.60
2015,09,22,17,21,15.60
2015,09,22,17,22,15.50
2015,09,22,17,23,15.50
2015,09,22,17,24,15.50
2015,09,22,17,25,15.50
2015,09,22,17,26,15.50
2015,09,22,17,27,15.50
2015,09,22,17,28,15.50
2015,09,22,17,29,15.50
2015,09,22,17,30,15.50
2015,09,22,17,31,15.50
2015,09,22,17,32,15.50
2015,09,22,17,33,15.40
2015,09,22,17,34,15.40
2015,09,22,17,35,15.30
2015,09,22,17,36,15.30
2015,09,22,17,37,15.30
2015,09,22,17,38,15.20
2015,09,22,17,39,15.20
2015,09,22,17,40,15.20
2015,09,22,17,41,15.20
2015,09,22,17,42,15.20
2015,09,22,17,43,15.10
2015,09,22,17,44,15.10